CAPE
588 304 555 25 310 215 84 9 19 10 72 410 468 469 448 261 310 385 258 221 348 134
465 448 378 102 312 89 4 11 21 36 216 312 254 228 189 100 296 395 597 312 377 210
215 406 372 177 114 10 8 21 10 40 65 50 140 128 176 70 508 226 331 526 448 293
172 143 84 67 16 20 0 0 0 25 16 27 51 203 320 209 497 389 400 522 418 610
252 74 168 105 10 6 1 0 7 21 23 63 91 268 196 369 170 381 388 471 298 429
132 141 155 38 8 6 5 0 20 11 40 53 302 72 77 186 181 345 341 355 334 147
138 88 139 31 7 10 1 6 9 33 33 83 170 210 101 108 196 88 123 138 161 173
154 48 61 13 19 7 11 12 24 21 34 111 112 39 160 258 49 72 55 83 76 60
126 167 13 6 13 7 19 18 20 32 31 100 0 0 0 106 47 66 70 22 77 48
94 80 9 13 11 14 20 20 29 21 95 7 0 0 0 25 110 118 67 33 16 33
100 28 11 18 17 9 2 11 25 20 137 14 0 0 0 0 235 193 101 34 19 34
111 41 21 10 73 34 37 17 77 249 167 12 0 0 0 72 165 137 92 43 53 16
172 174 47 233 282 130 123 75 115 328 74 2 0 0 0 0 109 106 55 32 4 0
215 296 254 325 326 221 173 114 244 99 37 13 0 0 0 0 12 21 28 0 0 0
CIN
-54 -77 -12 -75 -20 -11 -16 -25 -81 -2 -37 -2 -3 -7 -4 -14 -12 -6 -16 -22 -21 -43
-43 -37 -23 -46 -18 -23 -30 -16 -67 -34 -7 -6 -10 -9 -13 -20 -10 -7 -2 -22 -22 -27
-75 -7 -18 -29 -8 -6 -7 -4 -2 -5 -15 -11 -4 -4 -13 -28 -4 -17 -13 -5 -15 -23
-77 -53 -28 -20 -19 -5 0 0 0 -1 -5 -7 -4 -10 -10 -19 -7 -2 -6 -8 -12 -3
-62 -71 -16 -10 -6 -3 -1 0 -3 -1 -4 -13 -9 -14 -18 -2 -15 -3 -3 -3 -15 -2
-63 -34 -21 -52 -5 -2 -1 0 -2 -5 -15 -17 -14 -35 -36 -11 -14 -18 -16 -11 -5 -16
-55 -50 -16 -62 -9 -2 -1 -2 -10 -10 -11 -10 -18 -12 -19 -22 -25 -46 -39 -33 -14 -20
-41 -62 -34 -4 -3 -1 -2 -11 -7 -6 -8 -16 -12 -51 -32 -13 -49 -27 -44 -65 -88 -103
-25 -5 -4 -10 -9 -3 -9 -15 -11 -13 -6 -7 0 0 0 -63 -54 -35 -35 -72 -51 -72
-24 -15 -2 -10 -21 -19 -16 -14 -8 -11 -32 -7 0 0 0 -79 -31 -21 -31 -46 -73 -54
-28 -42 -4 -15 -9 -11 -6 -7 -5 -9 -9 -9 0 0 0 0 -7 -8 -3 -22 -37 -21
-42 -53 -60 -17 -20 -19 -30 -34 -20 -8 -10 -7 0 0 0 -39 -10 -5 -5 -10 0 -9
-49 -49 -61 -4 -14 -25 -21 -22 -26 -6 -12 -6 0 0 0 0 -13 -6 -3 -8 -32 -15
-46 -19 -24 -10 -4 -13 -14 -19 -14 -21 -11 -26 0 0 0 0 -23 -26 -6 0 0 0
Wind_Speed
9 9 10 12 14 12 13 12 12 13 13 13 13 12 12 12 13 15 17 19 21 22
9 12 13 14 13 13 12 13 12 13 13 13 13 12 12 13 14 15 17 18 22 22
10 12 13 14 13 13 13 13 12 13 14 13 13 13 12 13 14 16 19 19 21 21
11 12 12 12 13 12 12 13 13 14 14 14 14 15 13 13 13 14 19 20 20 21
12 12 12 13 13 13 14 13 16 15 16 15 17 18 9 12 14 16 17 19 21 21
13 12 12 13 14 14 14 16 16 17 14 16 17 19 18 16 14 15 17 18 19 22
13 12 12 13 15 16 15 13 10 10 15 16 17 19 20 16 16 15 16 15 16 17
14 15 15 14 14 16 16 12 10 10 16 17 16 18 21 17 15 12 11 8 7 10
15 16 15 13 11 12 12 12 9 9 12 11 14 21 23 18 18 22 20 10 5 5
18 17 16 18 16 14 13 16 16 10 10 10 10 11 22 18 20 20 19 13 16 13
20 20 19 18 18 17 14 12 11 12 7 9 10 12 17 16 21 21 23 15 12 26
20 21 20 20 19 17 16 16 8 8 8 8 12 15 12 20 22 20 26 16 3 18
23 22 22 22 21 21 21 21 22 9 11 6 10 12 12 14 24 18 3 2 11 14
22 21 21 21 21 22 22 23 23 16 8 5 6 8 9 14 25 10 15 13 13 22
Wind_Direction
16 16 14 12 15 24 26 44 75 49 50 52 72 101 115 121 139 158 183 197 216 219
29 9 11 15 18 30 36 49 70 53 62 72 85 110 83 100 108 145 179 203 205 209
24 14 17 13 30 37 58 35 41 63 69 105 139 88 107 117 130 162 199 196 183 194
29 38 35 43 41 48 44 28 75 78 98 114 83 69 94 115 125 145 194 198 212 198
47 48 28 60 64 57 72 60 118 101 156 30 14 20 299 117 147 142 170 188 203 204
57 31 28 68 84 78 77 113 245 187 28 13 21 40 64 68 139 184 208 220 221 195
45 33 47 71 93 100 92 66 316 353 29 34 23 75 75 118 130 185 203 213 214 207
64 65 76 69 81 87 94 46 308 330 60 61 22 11 67 130 150 190 204 239 247 225
70 74 62 48 30 49 46 54 12 20 19 1 8 50 69 135 139 124 150 207 247 357
83 74 74 84 79 69 70 89 93 38 22 359 347 203 75 130 136 138 151 194 181 184
98 94 89 81 89 89 67 58 69 69 343 346 276 214 148 135 127 137 134 171 184 153
94 103 99 102 95 94 95 103 308 355 310 304 246 207 214 113 132 150 132 167 14 70
110 107 112 106 97 110 112 118 176 44 250 317 255 238 242 206 127 167 19 13 47 74
102 91 89 94 98 108 107 108 109 73 253 296 295 290 253 211 130 46 142 57 111 168